sat.trackr.live / text

‹ back to catalog

2025-055A

NORAD 63291 · 2025-055A

PAYLOAD ACTIVE UNKNOWN

§ Identity

Operator
Country
PRC
Launch date
2025-03-17
Launch site
JSC
Launch vehicle
Mass (kg)
RCS (m²)

External: N2YO · Heavens-Above · Gunter

§ Orbital elements

Epoch: 2026-09-22T21:47:58.651008Z

Period
95.12 min
Inclination
97.6653°
Eccentricity
0.0024696
Mean motion
15.13826931 rev/d
Perigee alt
507.5 km
Apogee alt
541.6 km
Semi-major
6,902.7 km
B*
3.0156e-4
RAAN
46.3262°
Arg perigee
123.4027°
Mean anomaly
236.9571°
Rev number
8,383

§ Raw data

2025-055A1 63291U 25055A   26265.90831772  .00005420  00000+0  30156-3 0  99942 63291  97.6653  46.3262 0024696 123.4027 236.9571 15.13826931 83832

JSON: /api/v1/satellites/63291 · /tle

For live sub-satellite position, see the globe view (requires WebGL).

§ Visibility from observer

Set your observer location to see the next 7 days of passes ≥ 10°. The values pass through the URL so the page stays shareable.

No JS? Fill the form by hand. The geolocation button needs JavaScript.